QPF
0.00 0.00 0.00 0.00 0.00 0.00 0.00 0.00 0.00 0.00 0.00 0.00 0.00 0.00 0.00 0.00 0.00 0.00 0.00 0.00 0.00 0.00 0.00 0.00 0.00 0.00 0.00 0.00 0.00 0.00 0.00 0.00 0.00 0.00 0.00 0.00 0.00 0.00 0.00 0.00 0.00 0.00 0.02 0.03 0.05
0.00 0.00 0.00 0.00 0.00 0.00 0.00 0.00 0.00 0.00 0.00 0.00 0.00 0.00 0.00 0.00 0.00 0.00 0.00 0.00 0.00 0.00 0.00 0.00 0.00 0.00 0.00 0.00 0.00 0.00 0.00 0.00 0.00 0.00 0.00 0.00 0.00 0.00 0.00 0.00 0.00 0.00 0.02 0.04 0.11
0.00 0.00 0.00 0.00 0.00 0.00 0.00 0.00 0.00 0.00 0.00 0.00 0.00 0.00 0.00 0.00 0.00 0.00 0.00 0.00 0.00 0.00 0.00 0.00 0.00 0.00 0.00 0.00 0.00 0.00 0.00 0.00 0.00 0.00 0.00 0.00 0.00 0.00 0.00 0.00 0.00 0.00 0.01 0.08 0.08
0.00 0.00 0.00 0.00 0.00 0.00 0.00 0.00 0.00 0.00 0.00 0.00 0.00 0.00 0.00 0.00 0.00 0.00 0.00 0.00 0.00 0.00 0.00 0.00 0.00 0.00 0.00 0.00 0.00 0.00 0.00 0.00 0.00 0.00 0.00 0.00 0.00 0.00 0.00 0.00 0.00 0.00 0.00 0.01 0.04
0.00 0.00 0.00 0.00 0.00 0.00 0.00 0.00 0.00 0.00 0.00 0.00 0.00 0.00 0.00 0.00 0.00 0.00 0.00 0.00 0.00 0.00 0.00 0.00 0.00 0.00 0.00 0.00 0.00 0.00 0.00 0.00 0.00 0.00 0.00 0.00 0.00 0.00 0.00 0.00 0.00 0.00 0.00 0.01 0.04
0.00 0.00 0.00 0.00 0.00 0.00 0.00 0.00 0.00 0.00 0.00 0.00 0.00 0.00 0.00 0.00 0.00 0.00 0.00 0.00 0.00 0.00 0.00 0.00 0.00 0.00 0.00 0.00 0.00 0.00 0.00 0.00 0.00 0.00 0.00 0.00 0.00 0.00 0.00 0.00 0.00 0.00 0.00 0.00 0.00
0.00 0.00 0.00 0.00 0.00 0.00 0.00 0.00 0.00 0.00 0.00 0.00 0.00 0.00 0.00 0.00 0.00 0.00 0.00 0.00 0.00 0.00 0.00 0.00 0.00 0.00 0.00 0.00 0.00 0.00 0.00 0.00 0.00 0.00 0.00 0.00 0.00 0.00 0.00 0.00 0.00 0.00 0.00 0.00 0.00
0.00 0.00 0.00 0.00 0.00 0.00 0.00 0.00 0.00 0.00 0.00 0.00 0.00 0.00 0.00 0.00 0.00 0.00 0.00 0.00 0.00 0.00 0.00 0.00 0.00 0.00 0.00 0.00 0.00 0.00 0.00 0.00 0.00 0.00 0.00 0.00 0.00 0.00 0.00 0.00 0.00 0.00 0.00 0.00 0.02
0.00 0.00 0.00 0.00 0.00 0.00 0.00 0.00 0.00 0.00 0.00 0.00 0.00 0.00 0.00 0.00 0.00 0.00 0.00 0.00 0.00 0.00 0.00 0.00 0.00 0.00 0.00 0.00 0.00 0.00 0.00 0.00 0.00 0.00 0.00 0.00 0.00 0.00 0.00 0.00 0.00 0.00 0.00 0.00 0.01
0.00 0.00 0.00 0.00 0.00 0.00 0.00 0.00 0.00 0.00 0.00 0.00 0.00 0.00 0.00 0.00 0.00 0.00 0.00 0.00 0.00 0.00 0.00 0.00 0.00 0.00 0.00 0.00 0.00 0.00 0.00 0.00 0.00 0.00 0.00 0.00 0.00 0.00 0.00 0.00 0.00 0.00 0.00 0.00 0.01
0.00 0.00 0.00 0.00 0.00 0.00 0.00 0.00 0.00 0.00 0.00 0.00 0.00 0.00 0.00 0.00 0.00 0.00 0.00 0.00 0.00 0.00 0.00 0.00 0.00 0.00 0.00 0.00 0.00 0.00 0.00 0.00 0.00 0.00 0.00 0.00 0.00 0.00 0.00 0.00 0.00 0.01 0.01 0.01 0.01
0.00 0.00 0.00 0.00 0.00 0.00 0.00 0.00 0.00 0.00 0.00 0.00 0.00 0.00 0.00 0.00 0.00 0.00 0.00 0.00 0.00 0.00 0.00 0.00 0.00 0.00 0.00 0.00 0.00 0.00 0.00 0.00 0.00 0.00 0.00 0.00 0.00 0.00 0.00 0.00 0.01 0.03 0.08 0.04 0.00
0.00 0.00 0.00 0.00 0.00 0.00 0.00 0.00 0.00 0.00 0.00 0.00 0.00 0.00 0.00 0.00 0.00 0.00 0.00 0.00 0.00 0.00 0.00 0.00 0.00 0.00 0.00 0.00 0.00 0.00 0.00 0.00 0.00 0.00 0.00 0.00 0.00 0.00 0.00 0.00 0.03 0.03 0.02 0.00 0.00
0.00 0.00 0.00 0.00 0.00 0.00 0.00 0.00 0.00 0.00 0.00 0.00 0.00 0.00 0.00 0.00 0.00 0.00 0.00 0.00 0.00 0.00 0.00 0.00 0.00 0.00 0.00 0.00 0.00 0.00 0.00 0.00 0.00 0.00 0.00 0.00 0.00 0.01 0.01 0.04 0.07 0.01 0.00 0.00 0.00
0.00 0.00 0.00 0.00 0.00 0.00 0.00 0.00 0.00 0.00 0.00 0.00 0.00 0.00 0.00 0.00 0.00 0.00 0.00 0.00 0.00 0.00 0.00 0.00 0.00 0.00 0.00 0.00 0.00 0.00 0.00 0.00 0.00 0.00 0.00 0.00 0.00 0.00 0.01 0.05 0.02 0.01 0.01 0.00 0.00
0.00 0.00 0.00 0.00 0.00 0.00 0.00 0.00 0.00 0.00 0.00 0.00 0.00 0.00 0.00 0.00 0.00 0.00 0.00 0.00 0.00 0.00 0.00 0.00 0.00 0.00 0.00 0.00 0.00 0.00 0.00 0.00 0.00 0.00 0.00 0.00 0.00 0.03 0.07 0.10 0.05 0.01 0.00 0.00 0.00
0.00 0.00 0.00 0.00 0.00 0.00 0.00 0.00 0.00 0.00 0.00 0.00 0.00 0.00 0.00 0.00 0.00 0.00 0.00 0.00 0.00 0.00 0.00 0.00 0.00 0.00 0.00 0.00 0.00 0.00 0.00 0.00 0.00 0.00 0.00 0.00 0.00 0.04 0.07 0.03 0.01 0.00 0.00 0.00 0.00
0.00 0.00 0.00 0.00 0.00 0.00 0.00 0.00 0.00 0.00 0.00 0.00 0.00 0.00 0.00 0.00 0.00 0.00 0.00 0.00 0.00 0.00 0.00 0.00 0.00 0.00 0.00 0.00 0.00 0.00 0.00 0.00 0.00 0.00 0.00 0.00 0.04 0.07 0.02 0.00 0.00 0.00 0.00 0.00 0.00
0.00 0.00 0.00 0.00 0.00 0.00 0.00 0.00 0.00 0.00 0.00 0.00 0.00 0.00 0.00 0.00 0.00 0.00 0.00 0.00 0.00 0.00 0.00 0.00 0.00 0.00 0.00 0.00 0.00 0.00 0.00 0.00 0.00 0.00 0.00 0.00 0.07 0.04 0.01 0.00 0.00 0.00 0.00 0.00 0.00
0.00 0.00 0.00 0.00 0.00 0.00 0.00 0.00 0.00 0.00 0.00 0.00 0.00 0.00 0.00 0.00 0.00 0.00 0.00 0.00 0.00 0.00 0.00 0.00 0.00 0.00 0.00 0.00 0.00 0.00 0.00 0.00 0.00 0.00 0.00 0.00 0.01 0.02 0.06 0.04 0.00 0.00 0.00 0.00 0.00
0.00 0.00 0.00 0.00 0.00 0.00 0.00 0.00 0.00 0.00 0.00 0.00 0.00 0.00 0.00 0.00 0.00 0.00 0.00 0.00 0.00 0.00 0.00 0.00 0.00 0.00 0.00 0.00 0.00 0.00 0.00 0.00 0.00 0.00 0.00 0.00 0.05 0.01 0.02 0.01 0.00 0.00 0.00 0.00 0.00
0.00 0.00 0.00 0.00 0.00 0.00 0.00 0.00 0.00 0.00 0.00 0.00 0.00 0.00 0.00 0.00 0.00 0.00 0.00 0.00 0.00 0.00 0.00 0.00 0.00 0.00 0.00 0.00 0.00 0.00 0.00 0.00 0.00 0.00 0.00 0.00 0.02 0.02 0.01 0.01 0.00 0.00 0.00 0.00 0.00
0.00 0.00 0.00 0.00 0.00 0.00 0.00 0.00 0.00 0.00 0.00 0.00 0.00 0.00 0.00 0.00 0.00 0.00 0.00 0.00 0.00 0.00 0.00 0.00 0.00 0.00 0.00 0.00 0.00 0.00 0.00 0.00 0.00 0.00 0.00 0.01 0.05 0.00 0.00 0.01 0.00 0.00 0.00 0.00 0.00
0.00 0.00 0.00 0.00 0.00 0.00 0.00 0.00 0.00 0.00 0.00 0.00 0.00 0.00 0.00 0.00 0.00 0.00 0.00 0.00 0.00 0.00 0.00 0.00 0.00 0.00 0.00 0.00 0.00 0.00 0.00 0.00 0.00 0.00 0.01 0.05 0.04 0.01 0.00 0.01 0.00 0.00 0.00 0.00 0.00
0.00 0.00 0.00 0.00 0.00 0.00 0.00 0.00 0.00 0.00 0.00 0.00 0.00 0.00 0.00 0.00 0.00 0.00 0.00 0.00 0.00 0.00 0.00 0.00 0.00 0.00 0.00 0.00 0.00 0.00 0.00 0.00 0.00 0.01 0.04 0.03 0.02 0.00 0.00 0.00 0.00 0.00 0.00 0.00 0.00
0.00 0.00 0.00 0.00 0.00 0.00 0.00 0.00 0.00 0.00 0.00 0.00 0.00 0.00 0.00 0.00 0.00 0.00 0.00 0.00 0.00 0.00 0.00 0.00 0.00 0.00 0.00 0.00 0.00 0.00 0.01 0.02 0.01 0.01 0.01 0.00 0.00 0.00 0.00 0.00 0.00 0.00 0.00 0.00 0.00
0.00 0.00 0.00 0.00 0.00 0.00 0.00 0.00 0.00 0.00 0.00 0.00 0.00 0.00 0.00 0.00 0.00 0.00 0.00 0.00 0.00 0.00 0.00 0.00 0.00 0.00 0.00 0.00 0.00 0.02 0.02 0.00 0.00 0.00 0.00 0.00 0.00 0.00 0.00 0.00 0.00 0.00 0.00 0.00 0.00
MSLP
1017.25 1017.07 1016.88 1016.74 1016.55 1016.54 1016.21 1016.06 1015.88 1015.73 1015.38 1014.98 1014.71 1014.58 1014.44 1014.11 1013.14 1012.55 1011.42 1009.22 1008.79 1008.62 1008.74 1008.33 1007.94 1007.46 1007.39 1007.32 1006.98 1006.93 1008.19 1007.45 1006.09 1004.92 1004.23 1003.01 1003.00 1003.13 1003.72 1005.59 1008.01 1009.08 1010.99 1011.08 1012.19
1017.13 1016.82 1016.65 1016.59 1016.46 1016.23 1016.13 1015.97 1015.80 1015.53 1015.06 1014.75 1014.61 1014.62 1014.44 1013.91 1012.96 1011.09 1008.73 1008.57 1008.64 1008.61 1008.47 1008.28 1007.69 1006.90 1007.10 1006.68 1006.65 1006.76 1007.25 1005.91 1004.50 1004.33 1003.76 1003.10 1003.15 1002.98 1004.01 1005.80 1007.77 1009.36 1009.43 1009.94 1012.96
1016.87 1016.73 1016.70 1016.45 1016.18 1016.04 1015.89 1015.77 1015.51 1015.08 1014.75 1014.59 1014.68 1014.55 1014.11 1013.77 1012.71 1009.21 1008.12 1008.37 1008.51 1008.39 1008.36 1008.06 1007.67 1007.27 1006.72 1006.15 1005.84 1005.58 1006.08 1004.76 1004.29 1003.63 1003.18 1003.00 1002.93 1002.71 1003.37 1004.71 1006.32 1008.84 1010.47 1011.79 1012.37
1016.79 1016.71 1016.45 1016.12 1016.01 1015.77 1015.52 1015.31 1015.06 1014.83 1014.64 1014.60 1014.57 1014.17 1013.56 1013.53 1011.40 1008.38 1008.21 1008.26 1008.32 1008.33 1008.42 1008.01 1007.47 1007.25 1006.65 1006.31 1004.80 1004.83 1004.36 1003.93 1003.45 1003.19 1003.33 1003.66 1003.12 1003.12 1003.47 1004.43 1006.18 1008.63 1009.75 1009.77 1012.74
1016.79 1016.44 1016.06 1015.98 1015.74 1015.45 1015.26 1015.12 1014.90 1014.61 1014.49 1014.57 1014.35 1013.96 1013.03 1012.47 1009.64 1007.98 1008.16 1008.26 1008.05 1008.15 1008.05 1007.94 1007.68 1006.84 1006.40 1005.52 1004.65 1004.41 1004.11 1003.67 1003.04 1002.95 1003.25 1003.16 1003.42 1003.95 1004.15 1004.58 1007.01 1009.93 1012.06 1013.57 1014.89
1016.44 1016.06 1016.04 1015.73 1015.44 1015.21 1015.06 1014.79 1014.54 1014.41 1014.37 1014.39 1014.15 1013.90 1013.41 1010.94 1007.42 1007.51 1007.85 1007.93 1007.68 1007.63 1007.09 1007.04 1006.53 1005.88 1005.66 1005.48 1004.97 1004.46 1004.12 1003.71 1003.15 1003.07 1003.09 1003.58 1003.81 1004.18 1005.00 1007.18 1008.97 1011.36 1013.21 1014.42 1014.73
1016.33 1016.08 1015.71 1015.45 1015.25 1015.02 1014.79 1014.44 1014.22 1014.10 1014.16 1014.18 1014.02 1013.69 1012.37 1009.31 1006.88 1007.00 1007.28 1007.23 1006.90 1006.98 1006.62 1006.09 1005.85 1006.23 1006.22 1006.14 1005.02 1004.57 1004.67 1004.17 1003.56 1003.26 1003.53 1003.61 1004.49 1004.73 1005.84 1008.05 1010.04 1012.32 1014.09 1015.18 1015.88
1016.34 1015.85 1015.51 1015.21 1014.93 1014.66 1014.33 1013.97 1013.87 1013.87 1013.87 1013.83 1013.89 1013.40 1011.03 1007.11 1006.66 1006.72 1006.73 1006.61 1006.26 1006.01 1006.04 1005.88 1005.90 1006.30 1006.57 1006.17 1005.75 1005.49 1005.11 1005.03 1003.75 1003.64 1003.77 1004.02 1005.24 1005.41 1006.27 1009.25 1012.13 1013.54 1014.80 1016.08 1017.16
1016.14 1015.67 1015.31 1014.97 1014.61 1014.33 1013.99 1013.77 1013.59 1013.45 1013.49 1013.66 1013.59 1012.61 1009.47 1006.70 1006.35 1006.28 1006.29 1006.27 1005.92 1005.77 1005.58 1005.59 1006.01 1006.62 1006.73 1007.10 1007.05 1006.25 1005.70 1005.58 1004.66 1003.80 1004.28 1004.98 1006.12 1006.35 1007.20 1010.46 1013.35 1014.86 1016.42 1017.53 1018.11
1015.87 1015.45 1015.03 1014.67 1014.43 1014.10 1013.68 1013.45 1012.96 1013.02 1013.04 1012.90 1012.08 1011.56 1008.42 1006.51 1006.03 1005.88 1005.92 1005.90 1006.03 1005.82 1005.83 1005.69 1006.32 1006.69 1006.79 1007.15 1007.31 1006.44 1006.17 1005.54 1005.20 1005.23 1005.23 1006.09 1006.97 1007.43 1008.67 1011.75 1014.48 1015.55 1016.56 1017.95 1019.09
1015.73 1015.16 1014.65 1014.48 1014.22 1013.78 1013.06 1012.87 1012.96 1012.64 1011.90 1010.58 1009.43 1008.36 1006.70 1005.91 1005.72 1005.83 1005.63 1005.83 1005.96 1006.12 1006.05 1005.52 1006.60 1006.81 1006.39 1006.16 1006.21 1006.12 1006.12 1006.27 1006.17 1006.25 1006.57 1007.41 1008.31 1009.69 1011.95 1013.33 1014.71 1015.58 1016.45 1016.84 1019.57
1015.61 1014.93 1014.42 1014.19 1013.96 1013.62 1013.40 1012.37 1009.98 1009.21 1009.20 1008.50 1007.83 1007.25 1006.15 1005.58 1005.49 1005.22 1005.25 1005.90 1006.01 1006.17 1005.54 1005.84 1006.06 1005.82 1005.71 1005.77 1006.00 1006.54 1006.97 1007.17 1006.49 1006.33 1007.01 1008.10 1010.51 1013.73 1014.79 1015.82 1015.87 1016.76 1017.37 1017.94 1020.10
1015.40 1014.80 1014.24 1013.64 1013.48 1013.58 1012.43 1010.62 1008.48 1008.15 1008.44 1007.05 1006.14 1006.05 1005.68 1005.55 1005.19 1005.13 1005.23 1005.37 1005.42 1005.47 1005.18 1005.65 1005.67 1005.27 1005.50 1005.81 1006.15 1007.02 1007.46 1007.58 1007.84 1007.38 1007.48 1008.93 1012.73 1014.82 1016.50 1016.90 1017.73 1018.84 1018.90 1019.39 1020.57
1015.18 1014.66 1014.06 1013.30 1012.95 1011.63 1010.63 1008.68 1008.02 1008.22 1008.36 1006.55 1005.66 1005.09 1005.15 1005.24 1005.21 1005.00 1005.00 1005.31 1005.21 1005.23 1005.19 1005.41 1005.37 1005.46 1005.85 1006.36 1006.79 1007.41 1007.69 1008.08 1008.48 1009.03 1009.48 1009.64 1013.30 1016.53 1017.22 1017.40 1018.47 1020.38 1021.29 1021.78 1022.16
1015.01 1014.34 1013.96 1013.86 1013.06 1011.38 1009.22 1008.15 1008.09 1008.42 1008.00 1005.87 1005.22 1004.55 1004.85 1005.49 1005.18 1005.30 1005.06 1005.14 1005.42 1005.38 1005.59 1005.85 1005.80 1005.99 1006.54 1006.91 1007.18 1008.16 1008.28 1008.89 1009.22 1009.75 1010.26 1010.18 1012.79 1016.64 1017.36 1018.55 1019.58 1020.59 1022.27 1023.26 1023.24
1014.82 1014.14 1013.63 1013.29 1012.78 1010.33 1009.07 1008.54 1008.56 1008.91 1007.27 1005.36 1004.90 1004.94 1005.22 1005.11 1004.89 1005.17 1005.28 1005.33 1005.28 1005.76 1005.96 1006.13 1006.16 1006.73 1007.07 1007.26 1007.75 1008.24 1009.03 1009.74 1010.07 1010.64 1011.47 1011.59 1013.09 1017.25 1017.93 1019.50 1020.82 1022.25 1023.57 1023.97 1023.91
1014.29 1013.68 1013.67 1012.34 1011.10 1009.30 1008.98 1009.13 1009.45 1008.56 1006.52 1005.62 1004.97 1005.04 1005.05 1005.15 1005.01 1005.24 1005.71 1005.87 1006.27 1006.96 1007.23 1007.18 1007.62 1007.72 1007.67 1007.93 1008.40 1009.34 1010.37 1011.48 1012.62 1012.86 1013.11 1012.80 1015.00 1018.54 1019.59 1020.60 1022.16 1023.66 1024.43 1024.47 1024.38
1013.62 1013.13 1012.07 1011.14 1010.15 1009.71 1009.83 1010.08 1009.29 1007.50 1006.57 1005.56 1005.23 1005.11 1005.16 1005.01 1005.46 1005.80 1006.41 1006.83 1007.16 1007.68 1008.38 1008.65 1008.70 1008.34 1008.53 1008.66 1009.16 1009.66 1010.73 1012.37 1013.54 1014.44 1014.29 1013.76 1016.93 1019.91 1020.93 1021.88 1023.13 1023.84 1024.33 1024.04 1023.88
1013.07 1012.12 1011.68 1010.25 1009.95 1009.88 1010.60 1010.33 1008.92 1007.73 1007.30 1006.55 1006.02 1005.89 1005.80 1005.64 1005.90 1006.33 1006.89 1007.60 1008.30 1008.75 1009.67 1009.74 1009.39 1008.89 1008.87 1008.96 1009.29 1009.62 1010.73 1011.71 1013.04 1014.18 1015.35 1016.59 1019.19 1020.46 1021.34 1022.37 1022.33 1023.38 1023.68 1023.48 1023.60
1014.24 1012.72 1010.95 1009.44 1009.52 1010.31 1011.02 1010.26 1008.79 1007.74 1007.63 1007.36 1007.20 1007.22 1007.33 1006.82 1007.21 1007.40 1008.08 1008.90 1008.93 1009.36 1010.00 1010.74 1010.53 1010.05 1009.93 1009.64 1009.73 1009.93 1010.83 1012.19 1013.80 1015.47 1016.71 1017.79 1019.69 1021.02 1021.48 1022.55 1022.87 1023.56 1023.42 1023.64 1023.80
1014.33 1012.68 1010.13 1009.30 1009.74 1010.71 1011.17 1009.96 1008.76 1008.09 1008.01 1008.04 1008.11 1008.33 1008.44 1008.43 1008.21 1008.18 1009.26 1009.98 1009.80 1010.31 1010.92 1011.62 1012.03 1011.98 1011.25 1011.23 1011.18 1011.19 1012.14 1013.37 1014.65 1016.06 1017.39 1018.81 1021.34 1022.02 1022.38 1022.92 1023.30 1023.72 1023.96 1023.92 1023.71
1015.15 1012.97 1009.96 1009.54 1010.65 1010.72 1010.63 1009.83 1009.26 1008.53 1008.50 1008.42 1008.55 1008.90 1009.12 1009.29 1009.48 1009.63 1010.31 1010.35 1010.74 1010.97 1012.22 1012.65 1012.94 1013.30 1013.04 1012.22 1011.90 1012.24 1012.79 1013.91 1015.28 1016.39 1017.80 1019.00 1022.59 1023.32 1023.16 1023.31 1023.61 1023.96 1023.81 1023.44 1023.42
1016.83 1013.39 1010.35 1010.15 1011.34 1011.36 1010.58 1009.61 1009.46 1009.37 1009.41 1009.44 1009.60 1009.73 1009.80 1010.22 1010.54 1010.36 1010.84 1011.52 1011.84 1012.53 1013.49 1013.81 1014.41 1014.66 1014.20 1013.44 1012.96 1013.47 1013.79 1014.74 1015.63 1016.81 1019.37 1021.48 1022.95 1023.62 1023.61 1023.43 1023.87 1024.10 1024.03 1023.90 1023.80
1017.65 1014.71 1012.38 1011.65 1012.08 1012.05 1011.53 1010.64 1010.10 1009.92 1009.96 1010.11 1010.46 1010.44 1010.73 1011.01 1011.00 1011.21 1011.87 1012.74 1013.16 1013.88 1014.18 1014.31 1015.26 1015.83 1015.96 1015.40 1014.86 1014.74 1015.02 1016.18 1017.23 1019.20 1020.67 1022.26 1023.14 1023.54 1023.68 1023.53 1023.50 1023.71 1023.62 1023.80 1024.11
1017.57 1016.08 1015.50 1014.62 1013.66 1013.25 1012.62 1011.85 1011.05 1010.65 1010.62 1010.92 1011.10 1011.25 1011.39 1012.01 1012.22 1012.65 1012.47 1013.03 1013.62 1014.27 1014.73 1015.61 1016.58 1016.61 1016.37 1015.83 1015.39 1015.41 1016.07 1017.13 1017.71 1019.30 1020.38 1022.61 1022.98 1023.42 1023.22 1023.02 1022.91 1023.32 1023.76 1024.22 1024.59
1018.47 1017.84 1016.76 1015.94 1014.51 1013.95 1013.37 1012.58 1012.00 1011.60 1011.59 1011.87 1012.48 1012.70 1012.60 1013.28 1013.49 1013.60 1013.62 1013.85 1014.42 1014.64 1015.17 1016.10 1016.87 1017.07 1016.90 1016.13 1015.81 1016.70 1017.93 1017.96 1019.11 1019.95 1021.27 1022.33 1022.78 1022.61 1022.74 1022.86 1023.60 1024.00 1024.27 1024.71 1025.11
1019.61 1018.79 1018.02 1016.53 1015.27 1014.39 1013.51 1012.60 1012.44 1012.48 1012.62 1012.63 1013.23 1013.64 1014.00 1014.38 1013.98 1013.65 1013.65 1013.82 1014.11 1014.56 1015.67 1016.66 1017.46 1017.77 1017.63 1017.06 1016.66 1017.69 1018.77 1018.68 1019.80 1020.77 1021.54 1021.84 1021.99 1022.26 1023.06 1023.70 1024.40 1024.77 1025.05 1025.28 1025.46
Thickness
5740 5743 5744 5745 5745 5744 5747 5749 5751 5752 5757 5762 5765 5767 5770 5775 5785 5789 5791 5814 5820 5825 5825 5826 5827 5828 5827 5816 5826 5825 5767 5762 5789 5807 5812 5842 5835 5849 5848 5819 5800 5797 5776 5782 5779
5741 5743 5744 5744 5745 5746 5747 5748 5750 5753 5759 5763 5765 5766 5770 5776 5784 5792 5820 5823 5824 5825 5821 5815 5813 5826 5810 5815 5816 5800 5770 5796 5825 5822 5822 5831 5833 5841 5828 5816 5799 5788 5795 5794 5772
5741 5742 5742 5744 5745 5746 5747 5749 5752 5757 5761 5764 5765 5767 5772 5777 5778 5804 5826 5825 5826 5827 5825 5823 5822 5817 5808 5817 5814 5809 5782 5816 5827 5833 5838 5835 5833 5846 5835 5818 5808 5787 5778 5767 5762
5741 5741 5743 5745 5745 5747 5750 5752 5755 5759 5763 5764 5766 5770 5777 5778 5762 5817 5826 5827 5827 5827 5821 5817 5815 5804 5801 5796 5829 5806 5825 5834 5837 5837 5835 5821 5838 5830 5832 5829 5820 5793 5783 5787 5759
5740 5742 5745 5746 5747 5750 5752 5754 5758 5762 5765 5765 5768 5773 5781 5775 5787 5825 5826 5827 5828 5825 5815 5808 5803 5805 5797 5808 5822 5819 5822 5836 5840 5841 5837 5839 5826 5823 5825 5835 5809 5781 5764 5751 5738
5742 5746 5746 5748 5751 5753 5755 5759 5762 5765 5766 5767 5771 5774 5774 5767 5829 5829 5828 5827 5826 5823 5820 5819 5817 5824 5813 5808 5811 5824 5823 5824 5836 5834 5837 5824 5823 5824 5822 5806 5788 5764 5747 5741 5742
5744 5746 5749 5751 5753 5756 5759 5763 5766 5768 5769 5770 5772 5775 5775 5782 5834 5834 5833 5829 5833 5829 5821 5832 5832 5815 5813 5802 5827 5828 5809 5816 5821 5827 5821 5831 5803 5805 5822 5797 5784 5760 5745 5740 5735
5743 5748 5751 5754 5757 5760 5764 5768 5770 5771 5772 5773 5773 5776 5771 5831 5836 5833 5835 5831 5839 5841 5835 5838 5836 5818 5810 5818 5813 5802 5807 5776 5814 5824 5825 5818 5775 5813 5822 5777 5756 5750 5742 5730 5720
5745 5750 5753 5757 5761 5764 5768 5770 5773 5774 5775 5774 5774 5774 5777 5834 5821 5834 5836 5823 5833 5836 5839 5841 5829 5806 5806 5783 5766 5786 5761 5776 5801 5825 5819 5802 5783 5808 5809 5764 5737 5729 5719 5710 5706
5747 5751 5756 5760 5762 5766 5771 5773 5777 5778 5778 5779 5784 5768 5798 5804 5824 5832 5839 5834 5820 5823 5817 5816 5803 5785 5782 5767 5733 5768 5778 5792 5788 5804 5807 5793 5787 5805 5796 5747 5724 5718 5717 5707 5693
5748 5754 5759 5761 5764 5769 5776 5779 5771 5767 5777 5778 5788 5792 5808 5825 5835 5823 5833 5824 5819 5809 5784 5804 5773 5760 5786 5795 5797 5795 5788 5778 5791 5797 5788 5780 5784 5778 5754 5739 5724 5718 5717 5715 5683
5749 5756 5761 5763 5767 5770 5773 5771 5787 5795 5770 5799 5802 5804 5819 5827 5804 5818 5835 5802 5799 5779 5798 5786 5769 5795 5806 5807 5799 5782 5769 5760 5782 5795 5786 5778 5761 5725 5720 5711 5712 5706 5706 5702 5680
5750 5756 5761 5768 5770 5771 5776 5784 5812 5812 5770 5793 5811 5804 5809 5817 5801 5804 5820 5809 5795 5787 5797 5779 5788 5809 5803 5790 5781 5768 5758 5759 5759 5781 5788 5773 5723 5707 5703 5705 5699 5690 5692 5688 5677
5751 5756 5762 5770 5770 5783 5780 5807 5812 5810 5745 5775 5792 5806 5813 5814 5794 5825 5828 5810 5797 5786 5796 5793 5802 5798 5786 5773 5775 5750 5778 5772 5766 5748 5721 5768 5704 5682 5691 5694 5690 5671 5660 5656 5652
5751 5758 5762 5765 5767 5773 5794 5810 5813 5794 5706 5786 5793 5832 5818 5794 5800 5803 5829 5811 5784 5788 5793 5776 5781 5779 5766 5769 5780 5755 5771 5761 5759 5741 5734 5749 5707 5678 5692 5681 5673 5660 5648 5636 5639
5752 5758 5764 5768 5770 5788 5801 5807 5795 5736 5717 5778 5798 5790 5788 5797 5800 5807 5805 5818 5813 5791 5793 5788 5799 5784 5773 5780 5773 5773 5753 5745 5743 5733 5702 5731 5716 5672 5678 5668 5658 5646 5636 5631 5629
5755 5761 5762 5771 5770 5797 5802 5783 5731 5715 5788 5775 5782 5790 5785 5782 5792 5794 5784 5779 5763 5746 5747 5768 5760 5774 5777 5757 5761 5747 5718 5677 5672 5675 5684 5724 5688 5659 5664 5661 5644 5627 5620 5621 5619
5759 5765 5772 5779 5788 5793 5783 5747 5720 5761 5770 5799 5795 5795 5781 5794 5788 5784 5775 5758 5771 5762 5739 5727 5720 5755 5763 5751 5734 5732 5720 5671 5656 5656 5678 5721 5660 5641 5649 5641 5627 5622 5619 5619 5618
5761 5769 5770 5784 5788 5788 5754 5719 5733 5756 5772 5772 5783 5774 5774 5790 5784 5780 5770 5756 5757 5757 5729 5721 5729 5763 5764 5761 5747 5731 5705 5725 5690 5696 5673 5664 5651 5647 5642 5630 5628 5617 5614 5612 5608
5745 5754 5765 5788 5788 5771 5739 5727 5751 5776 5775 5774 5749 5761 5748 5765 5760 5758 5750 5756 5753 5761 5756 5735 5711 5748 5752 5757 5748 5736 5735 5681 5671 5649 5647 5658 5634 5626 5631 5621 5623 5612 5612 5607 5602
5742 5738 5770 5785 5781 5746 5718 5736 5757 5774 5773 5757 5749 5747 5748 5745 5754 5751 5737 5743 5753 5745 5745 5729 5710 5710 5731 5717 5702 5703 5690 5691 5680 5670 5640 5634 5610 5624 5619 5614 5606 5602 5599 5596 5591
5726 5720 5771 5779 5731 5734 5726 5748 5756 5762 5769 5763 5763 5756 5747 5745 5741 5739 5724 5736 5750 5743 5716 5722 5705 5681 5693 5720 5720 5710 5696 5688 5649 5653 5652 5640 5594 5607 5611 5608 5600 5589 5590 5595 5590
5706 5725 5766 5763 5711 5718 5738 5752 5755 5749 5747 5747 5743 5749 5750 5736 5725 5739 5725 5732 5733 5722 5705 5706 5677 5651 5663 5686 5698 5687 5696 5681 5673 5654 5633 5608 5597 5604 5602 5600 5593 5584 5586 5583 5579
5698 5701 5728 5737 5731 5722 5723 5731 5733 5751 5744 5748 5740 5743 5736 5730 5733 5724 5715 5710 5715 5710 5705 5704 5680 5666 5642 5653 5669 5666 5677 5655 5644 5612 5610 5602 5595 5594 5592 5594 5590 5588 5583 5577 5571
5697 5698 5702 5692 5709 5711 5716 5721 5721 5721 5739 5738 5731 5729 5723 5704 5710 5699 5709 5703 5706 5702 5699 5682 5659 5664 5666 5671 5673 5669 5656 5642 5640 5628 5617 5597 5591 5590 5591 5591 5592 5587 5579 5571 5560
5678 5677 5689 5690 5709 5707 5706 5710 5711 5716 5719 5711 5705 5710 5706 5689 5692 5684 5690 5686 5683 5694 5686 5674 5648 5657 5652 5670 5672 5642 5636 5643 5632 5627 5611 5599 5591 5601 5600 5595 5582 5574 5568 5557 5550
5671 5678 5676 5684 5692 5695 5695 5708 5708 5710 5712 5715 5702 5695 5686 5688 5697 5703 5703 5699 5695 5683 5667 5660 5646 5639 5635 5658 5658 5622 5625 5630 5625 5619 5609 5593 5603 5602 5589 5581 5569 5562 5555 5549 5542